Flag for China Weather past 2 weeks in Taiyuan, Shanxi, China

Now
30 °F

Light snow. Clear.


Feels Like: 23 °F
Forecast: 25 / 44 °F
Wind: 8 mph from Northeast

Location: Taiyuan Airport

Current Time: Feb 27, 2015 at 4:17:22 PM

Latest Report: Feb 27, 2015 at 3:30 PM


Visibility: 4 mi

Pressure: 30.24 "Hg

Humidity: 69%

Dew point: 21 °F

Location of TaiyuanLocation

Historic Weather in Taiyuan — Graph

°F

Taiyuan temperature yesterday

Maximum temperature yesterday: 45 °F (at 3:00 PM)
Minimum temperature yesterday: 21 °F (at 5:00 AM)
Average temperature yesterday: 33 °F

Past Weeks' High & Low Weather Summary

 TemperatureHumidityPressure
High57 °F (Feb 14, 3:30 PM)93% (Feb 19, 11:00 AM)30.36 "Hg (Feb 19, 11:00 AM)
Low14 °F (Feb 13, 6:30 AM)5% (Feb 17, 4:30 PM)29.77 "Hg (Feb 14, 5:00 PM)
Average34 °F39%30.07 "Hg
* Reported Feb 12 3:00 PM — Feb 27 3:00 PM, Taiyuan, Weather by CustomWeather, © 2015

Note: Actual official high and low records may vary slightly from our data, if they occured in-between our weather recording intervals... More about our weather records

Advertising

Taiyuan weather history for previous 24 hours

 ConditionsComfort  
Time TempWeatherWind HumidityBarometerVisibility
3:00 PM
Fri, Feb 27
30 °FLight snow. Clear.8 mph69%30.24 "Hg4 mi
2:30 PM30 °FLight snow. Clear.10 mph69%30.27 "Hg4 mi
2:00 PM30 °FLight snow. Clear.10 mph69%30.27 "HgN/A
1:30 PM30 °FLight snow. Clear.10 mph69%30.27 "HgN/A
1:00 PM30 °FLight snow. Clear.13 mph69%30.27 "HgN/A
12:30 PM30 °FLight snow. Clear.13 mph64%30.30 "HgN/A
11:30 AM28 °FLight snow. Clear.13 mph74%30.33 "Hg5 mi
10:30 AM28 °FLight snow. Ice fog.10 mph80%30.33 "Hg2 mi
10:00 AM28 °FLight snow. Ice fog.13 mph80%30.30 "Hg2 mi
9:30 AM27 °FLight snow. Ice fog.10 mph86%30.30 "Hg1 mi
9:00 AM27 °FLight snow. Ice fog.10 mph86%30.30 "Hg1 mi
8:30 AM27 °FLight snow. Ice fog.10 mph80%30.30 "Hg1 mi
8:00 AM27 °FLight snow. Ice fog.10 mph80%30.27 "Hg3 mi
7:30 AM27 °FLight snow. Ice fog.10 mph80%30.27 "Hg3 mi
7:00 AM27 °FLight snow. Ice fog.8 mph80%30.27 "Hg3 mi
6:30 AM27 °FLight snow. Ice fog.10 mph80%30.24 "Hg2 mi
6:00 AM27 °FLight snow. Ice fog.10 mph80%30.24 "Hg2 mi
5:30 AM27 °FLight snow. Ice fog.13 mph80%30.24 "Hg2 mi
5:00 AM27 °FLight rain. Ice fog.13 mph86%30.24 "Hg3 mi
4:30 AM27 °FLight rain. Ice fog.13 mph86%30.24 "Hg3 mi
4:00 AM27 °FLight rain. Ice fog.10 mph86%30.21 "Hg1 mi
3:30 AM28 °FLight rain. Clear.17 mph69%30.21 "Hg4 mi
3:00 AM32 °FClear.15 mph44%30.21 "Hg10 mi
2:30 AM32 °FClear.13 mph29%30.21 "Hg10 mi
2:00 AM34 °FClear.13 mph27%30.18 "Hg10 mi
1:30 AM34 °FClear.13 mph27%30.21 "Hg10 mi
1:00 AM34 °FClear.10 mph27%30.21 "Hg10 mi
12:30 AM34 °FClear.13 mph25%30.21 "Hg10 mi
12:00 AM34 °FClear.15 mph25%30.18 "Hg10 mi
11:30 PM
Thu, Feb 26
34 °FClear.15 mph25%30.18 "Hg10 mi
11:00 PM34 °FClear.17 mph23%30.18 "Hg10 mi
10:30 PM34 °FClear.13 mph25%30.18 "Hg10 mi
10:00 PM34 °FClear.13 mph23%30.18 "Hg10 mi
9:30 PM34 °FClear.10 mph23%30.18 "Hg10 mi
9:00 PM36 °FClear.10 mph21%30.15 "Hg10 mi
8:30 PM36 °FClear.13 mph21%30.15 "Hg10 mi
8:00 PM36 °FClear.10 mph20%30.15 "Hg10 mi
7:30 PM37 °FPassing clouds.6 mph17%30.12 "HgN/A
7:00 PM37 °FClear.8 mph17%30.09 "Hg10 mi
6:30 PM39 °FClear.13 mph16%30.09 "Hg10 mi
6:00 PM41 °FSunny.10 mph13%30.07 "Hg10 mi
5:30 PM43 °FSunny.3 mph11%30.07 "Hg10 mi
5:00 PM45 °FSunny.1 mph10%30.07 "Hg10 mi
4:30 PM43 °FPassing clouds.3 mph11%30.07 "HgN/A
4:00 PM45 °FPassing clouds.6 mph11%30.07 "HgN/A
Weather by CustomWeather, © 2015

See weather overviewHow to use our weather pages